Port Aransas, TX

6:59 AM CST on November 22, 2017 (GMT -0600)
Port Aransas

Weather History for KRAS - December, 2012

Change the Weather History Date:

Saturday, December 8, 2012

  Actual Average (KNGP) Record (KNGP)
Temperature  
Mean Temperature 72 °F -  
Max Temperature 77 °F 66 °F 82 °F (2007)
Min Temperature 68 °F 51 °F 34 °F (2005)
Cooling Degree Days 8    
Growing Degree Days 22 (Base 50)    
Moisture  
Dew Point 68 °F    
Average Humidity 90    
Maximum Humidity 100    
Minimum Humidity 74    
Precipitation  
Precipitation 0.00 in - - ()
Sea Level Pressure  
Sea Level Pressure 29.84 in    
Wind  
Wind Speed 8 mph (SSE)    
Max Wind Speed 14 mph    
Max Gust Speed 16 mph    
Visibility 9 miles    
Events      
Averages and records for this station are not official NWS values.
T = Trace of Precipitation, MM = Missing Value Source: NWS Daily Summary

Daily Weather History Graph

Daily Weather History Graph

Search for Another Location

Airport or City:

Trip Planner

Search our weather history database for the weather conditions in past years. The results will help you decide how hot, cold, wet, or windy it might be!

Date:

Astronomy

Dec. 08, 2012 Rise Set
Actual Time 7:07 AM CST 5:33 PM CST
Civil Twilight 6:41 AM CST 5:59 PM CST
Nautical Twilight 6:12 AM CST 6:28 PM CST
Astronomical Twilight 5:44 AM CST 6:56 PM CST
Moon 1:55 AM CST (12/8) 1:45 PM CST (12/8)
Length of Visible Light 11h 17m
Length of Day
10h 26m
Waning Crescent, 28% of the Moon is Illuminated
Dec 8
Waning Crescent
Dec 13
New
Dec 19
First Quarter
Dec 28
Full
Jan 4
Last Quarter

Hourly Weather History & Observations

Time (CST) Temp. Dew Point Humidity Pressure Visibility Wind Dir Wind Speed Gust Speed Precip Events Conditions
12:15 AM 69.8 °F 68.0 °F 94% 29.83 in 10.0 mi SSE 8.1 mph - N/A   Clear
12:35 AM 69.8 °F 68.0 °F 94% 29.82 in 10.0 mi SSE 8.1 mph - N/A   Clear
12:55 AM 69.8 °F 68.0 °F 94% 29.82 in 10.0 mi SSE 8.1 mph - N/A   Clear
1:15 AM 69.8 °F 68.0 °F 94% 29.82 in 10.0 mi SSE 5.8 mph - N/A   Clear
1:35 AM 69.8 °F 68.0 °F 94% 29.82 in 10.0 mi SSE 5.8 mph - N/A   Clear
1:55 AM 68.0 °F 68.0 °F 100% 29.82 in 7.0 mi SSE 5.8 mph - N/A   Clear
2:15 AM 68.0 °F 68.0 °F 100% 29.82 in 7.0 mi SSE 5.8 mph - N/A   Clear
2:35 AM 68.0 °F 68.0 °F 100% 29.82 in 7.0 mi SSE 4.6 mph - N/A   Clear
2:55 AM 68.0 °F 68.0 °F 100% 29.82 in 7.0 mi SSE 5.8 mph - N/A   Clear
3:15 AM 68.0 °F 68.0 °F 100% 29.82 in 7.0 mi SSE 5.8 mph - N/A   Clear
3:35 AM 68.0 °F 68.0 °F 100% 29.81 in 7.0 mi SSE 5.8 mph - N/A   Clear
3:55 AM 68.0 °F 68.0 °F 100% 29.82 in 7.0 mi SSE 3.5 mph - N/A   Clear
4:15 AM 69.8 °F 68.0 °F 94% 29.82 in 10.0 mi SE 3.5 mph - N/A   Mostly Cloudy
4:35 AM 68.0 °F 68.0 °F 100% 29.83 in 7.0 mi SE 4.6 mph - N/A   Mostly Cloudy
4:55 AM 69.8 °F 68.0 °F 94% 29.82 in 7.0 mi SE 5.8 mph - N/A   Overcast
5:15 AM 69.8 °F 68.0 °F 94% 29.83 in 10.0 mi SE 5.8 mph - N/A   Mostly Cloudy
5:35 AM 69.8 °F 68.0 °F 94% 29.83 in 10.0 mi SE 5.8 mph - N/A   Overcast
5:55 AM 69.8 °F 68.0 °F 94% 29.83 in 10.0 mi SE 8.1 mph - N/A   Mostly Cloudy
6:15 AM 69.8 °F 68.0 °F 94% 29.84 in 10.0 mi SE 8.1 mph - N/A   Overcast
6:35 AM 69.8 °F 68.0 °F 94% 29.85 in 10.0 mi SE 8.1 mph - N/A   Overcast
6:55 AM 69.8 °F 68.0 °F 94% 29.86 in 10.0 mi SE 6.9 mph - N/A   Overcast
7:15 AM 69.8 °F 68.0 °F 94% 29.86 in 10.0 mi SE 6.9 mph - N/A   Overcast
7:35 AM 69.8 °F 68.0 °F 94% 29.87 in 7.0 mi SSE 4.6 mph - N/A   Overcast
7:55 AM 69.8 °F 68.0 °F 94% 29.87 in 7.0 mi SSE 8.1 mph - N/A   Overcast
8:15 AM 71.6 °F 68.0 °F 88% 29.88 in 10.0 mi SE 10.4 mph - N/A   Mostly Cloudy
8:35 AM 71.6 °F 68.0 °F 88% 29.88 in 10.0 mi SE 10.4 mph - N/A   Overcast
8:55 AM 71.6 °F 68.0 °F 88% 29.88 in 10.0 mi SE 11.5 mph 16.1 mph N/A   Scattered Clouds
9:15 AM 71.6 °F 68.0 °F 88% 29.89 in 10.0 mi SSE 8.1 mph - N/A   Clear
9:35 AM 73.4 °F 68.0 °F 83% 29.89 in 10.0 mi SE 10.4 mph - N/A   Clear
9:55 AM 73.4 °F 68.0 °F 83% 29.90 in 10.0 mi SE 11.5 mph - N/A   Clear
10:15 AM 73.4 °F 68.0 °F 83% 29.90 in 10.0 mi SSE 11.5 mph 16.1 mph N/A   Clear
10:35 AM 73.4 °F 68.0 °F 83% 29.89 in 10.0 mi SSE 11.5 mph - N/A   Clear
10:55 AM 73.4 °F 68.0 °F 83% 29.89 in 10.0 mi SSE 10.4 mph - N/A   Clear
11:15 AM 75.2 °F 68.0 °F 78% 29.89 in 10.0 mi SSE 11.5 mph - N/A   Clear
11:35 AM 77.0 °F 68.0 °F 74% 29.89 in 10.0 mi SSE 11.5 mph - N/A   Mostly Cloudy
11:55 AM 73.4 °F 68.0 °F 83% 29.88 in 10.0 mi SSE 9.2 mph - N/A   Overcast
12:15 PM 75.2 °F 68.0 °F 78% 29.87 in 10.0 mi SSE 10.4 mph - N/A   Scattered Clouds
12:35 PM 75.2 °F 68.0 °F 78% 29.86 in 10.0 mi SSE 11.5 mph - N/A   Clear
12:55 PM 73.4 °F 68.0 °F 83% 29.85 in 10.0 mi SSE 12.7 mph - N/A   Scattered Clouds
1:15 PM 77.0 °F 68.0 °F 74% 29.84 in 10.0 mi SE 11.5 mph - N/A   Clear
1:35 PM 77.0 °F 68.0 °F 74% 29.83 in 10.0 mi SE 11.5 mph - N/A   Clear
1:55 PM 75.2 °F 68.0 °F 78% 29.83 in 10.0 mi SSE 8.1 mph - N/A   Clear
2:15 PM 73.4 °F 68.0 °F 83% 29.82 in 10.0 mi SSE 9.2 mph - N/A   Clear
2:35 PM 75.2 °F 69.8 °F 83% 29.81 in 10.0 mi SSE 9.2 mph 16.1 mph N/A   Clear
2:55 PM 73.4 °F 68.0 °F 83% 29.82 in 10.0 mi SSE 12.7 mph - N/A   Clear
3:15 PM 75.2 °F 68.0 °F 78% 29.81 in 10.0 mi SSE 10.4 mph 16.1 mph N/A   Clear
3:35 PM 75.2 °F 68.0 °F 78% 29.81 in 10.0 mi SSE 13.8 mph - N/A   Clear
3:55 PM 73.4 °F 68.0 °F 83% 29.81 in 10.0 mi SSE 10.4 mph - N/A   Clear
4:15 PM 73.4 °F 68.0 °F 83% 29.81 in 10.0 mi SSE 10.4 mph 16.1 mph N/A   Clear
4:35 PM 71.6 °F 68.0 °F 88% 29.81 in 10.0 mi SSE 10.4 mph 16.1 mph N/A   Clear
4:55 PM 71.6 °F 68.0 °F 88% 29.81 in 7.0 mi SSE 9.2 mph - N/A   Clear
5:15 PM 71.6 °F 68.0 °F 88% 29.81 in 7.0 mi SSE 9.2 mph - N/A   Clear
5:35 PM 71.6 °F 68.0 °F 88% 29.82 in 7.0 mi SSE 9.2 mph - N/A   Clear
5:55 PM 69.8 °F 68.0 °F 94% 29.83 in 10.0 mi SSE 9.2 mph - N/A   Clear
6:15 PM 69.8 °F 68.0 °F 94% 29.83 in 10.0 mi SSE 10.4 mph - N/A   Clear
6:35 PM 69.8 °F 68.0 °F 94% 29.83 in 10.0 mi SSE 10.4 mph - N/A   Clear
6:55 PM 71.6 °F 68.0 °F 88% 29.84 in 10.0 mi SSE 12.7 mph - N/A   Clear
7:15 PM 71.6 °F 68.0 °F 88% 29.84 in 10.0 mi SSE 11.5 mph - N/A   Clear
8:15 PM 69.8 °F 68.0 °F 94% 29.85 in 10.0 mi SSE 10.4 mph - N/A   Clear
8:35 PM 69.8 °F 68.0 °F 94% 29.86 in 10.0 mi SSE 10.4 mph - N/A   Clear
8:55 PM 69.8 °F 68.0 °F 94% 29.86 in 10.0 mi South 8.1 mph - N/A   Clear
9:15 PM 69.8 °F 68.0 °F 94% 29.86 in 10.0 mi South 8.1 mph - N/A   Clear
9:55 PM 69.8 °F 68.0 °F 94% 29.86 in 10.0 mi SSE 9.2 mph - N/A   Clear
10:35 PM 69.8 °F 68.0 °F 94% 29.87 in 10.0 mi South 8.1 mph - N/A   Clear
10:55 PM 69.8 °F 68.0 °F 94% 29.87 in 10.0 mi SSE 9.2 mph - N/A   Clear
11:15 PM 69.8 °F 68.0 °F 94% 29.86 in 10.0 mi South 9.2 mph - N/A   Clear
11:35 PM 69.8 °F 68.0 °F 94% 29.86 in 10.0 mi South 10.4 mph - N/A   Clear
11:55 PM 69.8 °F 68.0 °F 94% 29.86 in 10.0 mi South 9.2 mph - N/A   Clear